Weather History for KCZZ - November, 2012

Change the Weather History Date:

Thursday, November 8, 2012

  Actual Average Record
Temperature  
Mean Temperature 54 °F 55 °F  
Max Temperature 70 °F 73 °F 86 °F (1991)
Min Temperature 37 °F 38 °F 28 °F (1992)
Degree Days  
Heating Degree Days 11 10  
Month to date heating degree days 48 73  
Since 1 July heating degree days 184 283  
Cooling Degree Days 0 0  
Month to date cooling degree days 0 0  
Year to date cooling degree days 942 839  
Growing Degree Days 3 (Base 50)    
Moisture  
Dew Point 46 °F    
Average Humidity 69    
Maximum Humidity 93    
Minimum Humidity 45    
Precipitation  
Precipitation 0.02 in 0.03 in 0.51 in (1966)
Month to date precipitation 0.02 0.22  
Year to date precipitation 7.83 12.55  
Since 1 July precipitation 1.78 2.40  
Snow  
Snow 0.00 in - - ()
Month to date snowfall 0.0  
Year to date snowfall 0.0  
Since 1 July snowfall 0.0  
Snow Depth 0.00 in    
Sea Level Pressure  
Sea Level Pressure 29.89 in    
Wind  
Wind Speed 6 mph (SW)    
Max Wind Speed 23 mph    
Max Gust Speed 26 mph    
T = Trace of Precipitation, MM = Missing Value Source: NWS Daily Summary

Daily Weather History Graph

Daily Weather History Graph

Search for Another Location

Airport or City:

Trip Planner

Search our weather history database for the weather conditions in past years. The results will help you decide how hot, cold, wet, or windy it might be!

Date:

Astronomy

Nov. 08, 2012 Rise Set
Actual Time 6:09 AM PST 4:48 PM PST
Civil Twilight 5:44 AM PST 5:14 PM PST
Nautical Twilight 5:14 AM PST 5:44 PM PST
Astronomical Twilight 4:45 AM PST 6:13 PM PST
Moon 12:28 AM PST (11/8) 1:15 PM PST (11/8)
Length of Visible Light 11h 30m
Length of Day
10h 38m
Waning Crescent, 32% of the Moon is Illuminated
Nov 8
Waning Crescent
Nov 13
New
Nov 20
First Quarter
Nov 28
Full
Dec 6
Last Quarter

Hourly Weather History & Observations

Time (PST) Temp. Windchill Dew Point Humidity Pressure Visibility Wind Dir Wind Speed Gust Speed Precip Events Conditions
12:52 AM 42.1 °F 38.4 °F 33.1 °F 70% 29.92 in - NE 5.8 mph - N/A   Unknown
1:52 AM 41.0 °F 38.0 °F 33.1 °F 73% 29.92 in - NE 4.6 mph - N/A   Unknown
2:52 AM 37.9 °F - 30.0 °F 73% 29.92 in - Calm Calm - N/A   Unknown
3:52 AM 41.0 °F - 36.0 °F 82% 29.93 in - Calm Calm - N/A   Unknown
4:52 AM 44.1 °F - 37.9 °F 79% 29.96 in - Calm Calm - N/A   Unknown
5:52 AM 50.0 °F - 44.1 °F 80% 29.94 in - South 8.1 mph - 0.01 in   Unknown
6:52 AM 48.9 °F - 46.0 °F 90% 29.94 in - SSW 4.6 mph - N/A   Unknown
7:52 AM 51.1 °F - 46.9 °F 86% 29.94 in - Calm Calm - N/A   Unknown
8:52 AM 55.9 °F - 48.0 °F 75% 29.93 in - Calm Calm - N/A   Unknown
9:52 AM 63.0 °F - 48.0 °F 58% 29.90 in - Calm Calm - N/A   Unknown
10:52 AM 69.1 °F - 48.9 °F 49% 29.87 in - West 11.5 mph - N/A   Unknown
11:27 AM 68.0 °F - 46.4 °F 46% 29.93 in - SW 18.4 mph - N/A   Unknown
11:52 AM 68.0 °F - 46.9 °F 47% 29.87 in - SW 16.1 mph - N/A   Unknown
12:52 PM 62.1 °F - 51.1 °F 67% 29.87 in - SW 16.1 mph 24.2 mph 0.01 in   Unknown
1:52 PM 63.0 °F - 51.1 °F 65% 29.86 in - SSW 12.7 mph - N/A   Unknown
2:52 PM 63.0 °F - 50.0 °F 63% 29.84 in - SW 10.4 mph - N/A   Unknown
3:52 PM 60.1 °F - 50.0 °F 69% 29.84 in - SW 15.0 mph - N/A   Unknown
4:52 PM 57.0 °F - 50.0 °F 77% 29.85 in - SW 11.5 mph - N/A   Unknown
5:52 PM 55.9 °F - 48.0 °F 75% 29.86 in - SW 10.4 mph - N/A   Unknown
6:52 PM 54.0 °F - 48.9 °F 83% 29.86 in - WSW 15.0 mph - N/A   Unknown
7:52 PM 53.1 °F - 48.9 °F 86% 29.86 in - SW 9.2 mph - N/A   Unknown
8:52 PM 53.1 °F - 48.9 °F 86% 29.86 in - SW 12.7 mph 19.6 mph N/A   Unknown
9:52 PM 52.0 °F - 48.9 °F 89% 29.85 in - SW 12.7 mph - N/A   Unknown
10:52 PM 52.0 °F - 50.0 °F 93% 29.83 in - SW 11.5 mph - 0.03 in   Unknown
11:52 PM 52.0 °F - 48.9 °F 89% 29.82 in - WSW 18.4 mph 23.0 mph 0.03 in   Unknown